Wind_Speed
6 6 8 16 20 13 17 19 24 25 22 25 22 21 20 19 17 14 12 11 10 9 4 4 5 6 7 8 9 10 11 12 13 13 13 14 15 16 17 18 19 20 19 20 20 21 21 21 21
10 10 12 18 13 20 19 19 22 21 22 24 23 21 22 19 16 14 12 9 9 7 7 7 6 5 4 5 5 7 9 11 11 11 12 13 15 16 17 18 17 18 20 20 21 21 21 21 21
11 12 11 13 12 19 22 21 20 20 23 27 25 25 23 19 15 14 12 9 7 6 4 3 4 3 2 4 5 6 8 10 10 9 10 11 12 11 12 14 17 17 17 18 20 21 22 21 22
17 18 12 14 14 16 20 24 25 25 24 25 24 28 26 21 17 13 13 12 10 7 4 4 4 4 6 5 5 6 7 8 10 12 13 13 13 13 12 11 11 12 13 13 15 16 19 19 21
12 11 6 12 16 16 23 26 25 24 19 22 17 19 23 23 20 15 11 10 14 8 8 7 5 6 5 7 8 8 9 11 12 13 14 16 17 17 16 15 15 16 17 18 19 21 21 21 22
11 10 8 12 18 18 18 21 25 25 24 22 21 19 21 24 23 18 14 16 12 6 6 8 7 2 8 10 10 11 12 13 14 14 16 18 18 19 20 19 19 19 21 23 23 25 25 23 26
13 10 11 12 19 21 14 19 24 26 26 23 20 18 23 27 30 24 16 14 5 6 7 8 7 6 9 10 12 14 14 15 17 17 17 19 20 22 24 25 24 23 24 25 26 27 26 30 31
13 5 9 14 18 22 20 20 22 24 24 25 21 24 23 27 29 26 14 14 13 13 13 13 10 9 10 12 12 13 16 16 16 17 18 20 20 21 24 26 26 26 27 27 26 27 28 30 31
5 6 4 10 18 23 22 25 27 25 25 24 24 25 26 27 30 24 20 17 15 11 10 13 17 17 14 14 13 14 16 19 20 20 20 21 22 23 25 28 29 30 31 32 32 33 33 35 37
2 3 7 12 19 22 22 26 28 29 27 26 24 24 23 25 21 29 29 21 24 14 12 10 12 16 18 19 17 16 17 19 22 23 23 22 23 25 27 30 32 33 34 36 37 37 38 38 40
4 5 8 14 14 13 19 24 24 27 25 29 25 21 20 19 21 28 33 31 27 18 10 11 14 16 18 20 24 20 18 19 21 22 22 23 24 26 29 32 34 35 36 37 40 42 44 45 44
2 7 12 9 12 13 18 19 20 25 26 25 23 16 20 18 22 28 33 31 28 22 12 13 18 20 19 20 23 26 22 20 20 20 22 24 27 29 30 32 33 34 36 37 40 43 46 48 49
1 3 6 6 6 11 13 16 18 23 28 28 20 15 19 23 24 29 33 33 31 24 17 15 21 21 22 22 23 24 30 27 22 22 25 25 28 30 31 34 35 36 36 38 40 43 46 50 52
10 5 5 4 5 9 10 13 16 20 29 30 15 14 19 24 25 27 30 34 36 30 24 20 20 26 25 21 22 25 32 29 26 28 28 30 30 31 34 34 36 38 40 43 47 50 53 56 59
2 6 5 6 7 7 9 13 16 20 25 27 13 14 17 22 26 24 28 33 37 35 30 27 26 26 23 22 20 22 27 28 28 32 34 35 36 36 36 36 38 39 45 48 50 55 58 63 58
3 3 8 10 10 8 13 16 18 22 26 25 15 15 18 21 25 23 27 33 35 34 34 31 29 31 27 24 23 24 27 28 30 35 36 39 39 39 40 41 42 47 49 52 55 60 64 56 48
8 8 6 5 9 15 17 18 20 22 28 24 18 18 20 23 26 22 28 31 34 39 40 37 32 32 31 32 36 30 33 33 35 37 41 41 41 41 41 43 45 48 51 56 59 64 60 50 45
10 14 10 5 10 14 18 20 22 26 28 27 27 21 21 22 25 26 32 34 38 41 43 40 36 33 30 30 29 31 34 36 37 39 41 40 41 42 44 46 48 52 54 58 62 62 54 48 46
12 14 14 14 15 19 22 26 28 29 31 28 29 19 17 21 25 28 32 34 35 39 41 38 35 35 33 33 33 33 37 35 37 40 40 40 41 43 45 47 50 55 58 60 63 59 49 46 46
15 16 16 17 18 21 25 27 29 30 28 25 22 16 17 21 24 27 34 37 36 38 38 35 33 33 33 32 31 34 35 37 39 41 42 42 44 46 48 50 52 53 57 59 64 53 51 48 47
22 23 17 19 20 22 23 21 22 22 22 19 17 17 18 22 24 32 38 36 35 39 36 34 34 32 32 33 37 40 41 42 44 45 45 46 47 48 50 51 53 54 55 59 61 53 54 49 50
16 16 20 19 19 23 24 23 21 19 19 18 19 18 21 24 29 34 36 35 39 41 38 38 36 35 35 37 41 43 44 45 47 47 46 46 47 47 50 51 53 54 56 60 61 55 55 55 57
15 18 20 20 17 18 19 21 19 19 20 20 19 22 27 29 31 35 34 37 43 40 39 42 39 38 38 39 42 44 46 48 48 49 48 47 48 49 51 52 54 56 57 63 60 58 59 55 51
11 15 14 20 18 17 18 21 21 23 23 22 22 29 31 32 36 37 39 39 40 39 42 42 40 38 43 44 45 47 49 50 50 50 50 49 49 50 52 53 54 57 59 63 58 58 54 53 55
11 12 18 14 14 15 15 17 22 24 22 24 29 34 35 36 37 37 36 38 40 42 43 43 42 41 42 44 46 47 48 50 51 51 50 50 49 50 51 53 54 58 63 58 56 52 54 58 52
16 16 19 15 12 13 19 24 21 22 24 27 30 32 33 33 34 36 38 39 40 42 41 41 42 44 46 48 49 50 51 51 50 50 49 47 48 49 50 51 54 59 58 55 51 52 55 53 52
20 20 15 16 17 17 20 20 19 21 24 27 29 30 29 32 34 36 38 40 40 41 42 42 45 45 45 45 46 48 50 52 53 54 52 49 50 49 50 52 55 58 54 51 48 53 49 44 40
15 14 16 16 19 20 19 21 22 25 27 29 29 28 28 30 33 36 36 37 38 40 43 43 42 43 44 45 48 50 51 52 52 53 49 48 51 51 52 54 58 53 50 45 50 47 40 32 26
19 21 21 20 21 24 26 26 30 30 30 30 29 25 24 28 33 34 36 39 40 40 39 40 42 44 48 50 51 52 53 53 53 53 51 51 51 51 52 55 54 49 43 43 46 42 31 27 23
23 26 27 25 23 25 27 29 29 33 37 38 33 25 27 30 34 36 40 39 39 38 40 42 46 50 53 54 54 54 54 54 54 55 52 53 52 52 52 55 47 41 39 41 40 30 25 19 16
Wind_Direction
166 135 66 74 59 62 62 67 69 56 59 57 55 61 59 54 47 52 49 56 50 44 20 344 345 336 332 345 360 358 351 340 331 324 321 316 310 310 309 307 305 303 298 294 289 285 283 278 273
177 135 90 76 66 78 69 59 66 52 51 50 51 54 54 49 54 53 59 60 40 35 24 16 14 14 4 5 10 16 14 11 360 346 330 323 316 309 307 307 306 303 301 301 298 296 292 287 281
156 147 101 86 56 60 64 66 66 56 57 52 47 46 43 39 41 44 43 43 41 45 37 31 31 9 1 15 11 3 359 346 346 347 345 341 339 333 316 311 309 311 310 306 303 304 303 301 296
128 148 119 71 62 67 68 66 58 59 62 53 48 43 36 27 22 31 33 22 7 6 7 28 30 26 22 4 357 338 330 322 322 321 323 321 320 314 325 324 323 321 319 313 311 308 303 302 302
139 148 122 86 84 71 62 66 58 60 44 26 20 23 26 24 15 9 355 3 349 333 331 324 324 337 346 344 332 318 316 317 320 318 317 314 311 310 311 311 311 308 308 304 298 304 296 299 298
147 124 110 99 79 56 57 61 55 48 37 27 26 28 22 7 2 352 339 342 319 296 320 319 321 299 329 321 310 310 304 303 301 299 302 302 304 303 303 301 299 299 299 294 297 296 292 293 300
143 140 87 77 57 43 48 61 50 37 34 29 33 15 11 2 1 358 341 12 25 336 329 321 302 274 298 305 307 302 300 300 298 298 298 295 300 301 298 297 296 296 294 294 293 289 290 281 290
132 126 83 51 55 49 46 54 46 28 28 32 28 24 12 3 359 354 38 43 11 355 343 329 316 308 310 303 307 307 307 304 299 301 299 297 295 294 291 292 292 292 293 293 290 288 285 283 284
102 80 54 47 55 52 45 50 45 34 25 33 30 23 7 8 7 32 64 39 359 341 2 353 337 328 326 318 311 312 314 312 312 316 313 312 311 309 306 304 304 303 301 299 295 292 289 287 285
128 43 55 53 58 57 43 46 39 29 26 29 20 19 6 6 20 41 34 16 18 346 342 350 340 338 334 321 313 311 310 309 311 310 306 304 303 302 301 301 300 298 296 296 294 291 288 285 283
52 25 45 50 51 61 40 37 32 27 29 30 20 19 18 19 38 43 35 27 16 3 310 324 325 322 322 319 312 308 308 305 302 296 294 295 294 294 296 296 298 301 302 301 300 297 293 290 286
17 25 33 51 77 37 28 22 20 19 23 22 26 26 24 24 40 37 29 26 22 10 336 325 331 321 309 308 310 309 311 305 294 290 288 291 295 298 301 300 300 301 302 303 301 299 298 295 292
256 24 43 11 38 33 16 2 12 11 23 12 33 25 27 32 30 30 25 19 14 11 359 325 308 310 303 296 306 314 321 300 294 298 301 302 306 304 302 301 301 301 303 302 298 298 296 294 292
282 285 8 339 338 12 2 348 359 4 12 7 25 24 23 28 23 26 19 15 10 359 344 333 324 323 314 303 309 311 310 301 298 307 311 313 311 309 307 302 304 302 300 300 297 294 295 297 298
322 307 306 303 290 335 330 329 339 348 360 3 359 13 17 22 17 11 6 3 1 355 344 334 326 323 316 308 310 306 304 303 300 307 310 309 308 308 305 305 306 304 305 304 303 307 306 306 300
240 282 295 289 323 317 323 321 339 344 345 350 358 5 12 17 5 2 356 351 351 351 344 339 332 327 309 310 304 304 310 304 305 308 312 309 311 310 309 310 310 311 311 311 311 311 312 307 299
222 245 27 293 300 319 323 321 328 331 331 346 357 350 359 360 351 350 346 343 341 341 343 337 331 323 316 303 297 304 304 307 313 312 307 309 309 308 308 308 307 311 313 313 313 315 311 306 298
237 246 253 279 308 310 315 313 310 313 322 330 330 332 340 348 346 340 338 334 331 333 335 331 328 322 316 307 296 300 306 307 309 306 307 307 308 307 307 308 311 316 315 315 315 315 308 303 298
255 256 259 272 287 299 302 300 302 308 315 315 312 315 325 342 338 335 328 327 331 333 329 324 320 317 313 309 301 295 301 306 310 312 310 309 307 305 305 311 315 316 314 311 311 311 305 300 296
259 261 272 284 286 288 289 294 299 304 306 304 303 303 315 324 328 318 322 324 326 324 321 319 314 308 305 299 294 303 310 313 310 312 313 312 310 310 313 312 310 312 312 311 314 307 306 299 295
270 273 280 286 287 291 292 298 303 306 309 313 305 306 309 311 313 310 314 316 316 318 321 322 318 308 305 301 311 313 315 313 313 313 315 314 312 310 307 306 309 310 313 316 316 306 304 297 293
277 287 290 297 297 292 299 305 311 316 318 308 297 302 300 298 298 305 308 312 313 317 320 324 319 313 313 315 312 312 313 314 313 313 310 310 307 305 305 305 309 312 314 314 313 307 304 299 298
293 303 300 306 305 301 301 305 310 309 309 305 302 301 302 302 302 308 308 312 311 312 317 319 318 317 315 311 315 315 316 316 315 312 309 308 309 307 305 307 311 314 314 314 311 307 304 300 295
299 323 310 306 310 300 303 307 307 309 308 302 297 304 308 308 307 307 310 311 311 311 314 319 322 320 320 321 320 321 320 318 315 313 312 311 311 308 307 308 312 316 317 314 311 308 305 301 298
307 311 316 317 299 295 300 304 311 310 306 303 302 305 304 304 308 308 312 316 316 315 321 325 328 329 327 326 325 323 321 319 318 316 314 313 311 309 308 310 314 316 316 313 311 309 306 305 303
305 302 311 306 289 290 298 305 311 305 303 299 299 299 307 311 315 320 320 318 318 325 330 331 329 331 332 330 328 326 324 321 318 315 313 311 310 309 311 313 315 316 314 314 313 310 312 309 301
303 304 303 297 299 301 304 308 315 312 310 305 307 312 321 320 322 323 321 324 331 332 330 330 332 334 333 331 330 330 329 326 322 318 315 312 311 312 315 315 316 316 315 315 313 315 315 313 308
298 308 309 312 315 316 316 315 316 315 318 317 318 323 322 325 327 327 328 332 334 331 330 332 335 335 335 335 336 336 334 331 325 319 315 314 313 314 317 317 317 316 317 315 316 320 314 321 324
326 323 316 315 316 314 318 324 323 323 321 320 326 324 324 327 332 330 331 332 335 335 335 335 334 334 334 334 333 333 332 330 327 323 318 316 315 316 318 317 316 317 317 317 325 322 315 318 323
316 313 306 306 312 311 312 318 320 324 326 327 324 327 328 325 327 326 327 332 332 329 331 334 331 331 330 330 330 330 329 330 328 325 321 317 317 317 318 318 317 316 318 325 326 325 334 339 345
Height
5912 5914 5914 5914 5916 5910 5907 5905 5903 5903 5904 5904 5903 5902 5901 5900 5900 5901 5899 5898 5898 5897 5897 5897 5895 5894 5893 5893 5892 5892 5890 5889 5889 5888 5887 5887 5887 5886 5886 5886 5885 5885 5885 5884 5885 5884 5885 5885 5885
5913 5916 5918 5917 5917 5912 5909 5907 5905 5904 5904 5904 5904 5903 5902 5902 5901 5901 5899 5899 5897 5897 5896 5895 5894 5894 5893 5892 5892 5891 5890 5889 5888 5887 5886 5886 5885 5885 5884 5884 5883 5882 5882 5881 5881 5880 5880 5880 5881
5913 5917 5920 5919 5917 5913 5911 5909 5908 5907 5906 5905 5905 5903 5902 5902 5902 5900 5900 5899 5898 5897 5896 5895 5893 5892 5891 5891 5891 5890 5889 5889 5887 5887 5886 5885 5884 5883 5882 5881 5881 5880 5879 5878 5878 5877 5877 5875 5876
5915 5918 5920 5920 5918 5915 5912 5911 5909 5909 5908 5907 5907 5906 5906 5906 5904 5902 5900 5899 5898 5897 5895 5894 5893 5892 5891 5891 5890 5889 5888 5887 5887 5886 5886 5884 5883 5882 5881 5880 5879 5879 5878 5876 5876 5874 5874 5872 5871
5917 5919 5920 5921 5919 5918 5914 5912 5912 5911 5910 5909 5909 5909 5908 5906 5904 5902 5900 5899 5898 5897 5895 5894 5892 5892 5891 5890 5890 5889 5888 5887 5887 5886 5885 5884 5883 5882 5880 5879 5877 5877 5876 5875 5873 5872 5871 5870 5868
5918 5921 5921 5920 5918 5917 5916 5914 5914 5914 5911 5911 5910 5910 5909 5905 5903 5900 5898 5897 5895 5894 5894 5894 5892 5890 5890 5889 5889 5888 5887 5885 5884 5883 5882 5882 5880 5880 5879 5877 5875 5874 5873 5871 5870 5869 5867 5865 5864
5918 5920 5920 5919 5917 5917 5916 5915 5914 5913 5913 5912 5912 5911 5908 5903 5900 5898 5896 5894 5894 5895 5894 5892 5891 5889 5888 5887 5888 5887 5885 5883 5883 5882 5879 5879 5877 5875 5875 5874 5872 5870 5868 5867 5865 5864 5863 5861 5859
5919 5921 5922 5920 5918 5918 5916 5915 5914 5914 5914 5914 5913 5911 5907 5904 5900 5894 5891 5895 5896 5895 5895 5894 5891 5888 5887 5886 5886 5885 5883 5881 5879 5877 5876 5875 5873 5871 5871 5870 5868 5865 5863 5861 5860 5858 5857 5855 5853
5919 5920 5920 5920 5919 5917 5917 5916 5915 5915 5915 5913 5913 5911 5907 5904 5900 5894 5895 5895 5893 5892 5891 5893 5892 5890 5888 5886 5884 5882 5880 5878 5876 5873 5872 5870 5868 5866 5865 5864 5862 5859 5857 5855 5854 5852 5851 5849 5847
5920 5920 5920 5920 5919 5917 5917 5916 5915 5916 5915 5914 5914 5912 5909 5905 5902 5898 5897 5896 5893 5890 5890 5890 5890 5890 5888 5886 5883 5880 5878 5875 5873 5872 5869 5866 5864 5862 5860 5859 5857 5855 5852 5850 5847 5846 5844 5842 5840
5920 5920 5919 5919 5919 5918 5917 5917 5916 5916 5915 5915 5915 5913 5910 5907 5904 5901 5900 5897 5893 5891 5889 5889 5889 5887 5885 5883 5881 5879 5876 5874 5871 5868 5865 5862 5860 5857 5855 5854 5852 5848 5845 5842 5838 5835 5834 5832 5831
5920 5919 5919 5919 5919 5919 5917 5918 5917 5916 5916 5915 5915 5914 5910 5907 5903 5901 5898 5897 5894 5892 5889 5889 5887 5884 5881 5878 5876 5876 5873 5869 5866 5863 5861 5858 5855 5852 5850 5848 5845 5841 5837 5834 5830 5827 5823 5820 5818
5920 5919 5919 5918 5919 5918 5918 5918 5917 5916 5915 5914 5914 5913 5910 5907 5903 5900 5897 5895 5893 5892 5890 5888 5885 5882 5878 5874 5871 5870 5868 5864 5861 5859 5856 5853 5849 5846 5843 5841 5837 5834 5830 5826 5822 5818 5814 5809 5805
5920 5919 5919 5917 5917 5917 5918 5918 5917 5916 5915 5914 5913 5912 5909 5905 5902 5899 5896 5894 5892 5890 5889 5886 5882 5877 5873 5870 5867 5865 5862 5858 5855 5852 5849 5845 5842 5839 5836 5833 5829 5825 5821 5816 5811 5807 5803 5797 5790
5919 5918 5917 5917 5917 5917 5917 5917 5916 5916 5916 5914 5912 5910 5908 5904 5900 5897 5895 5892 5889 5887 5885 5881 5876 5872 5869 5866 5862 5860 5857 5853 5850 5846 5843 5838 5835 5831 5827 5824 5820 5815 5810 5805 5799 5793 5787 5780 5774
5919 5919 5918 5917 5917 5917 5916 5914 5915 5914 5913 5914 5913 5909 5906 5903 5899 5896 5893 5890 5888 5885 5882 5877 5871 5867 5864 5860 5857 5855 5853 5847 5843 5838 5834 5830 5826 5821 5817 5812 5807 5802 5797 5792 5785 5778 5771 5763 5758
5919 5919 5919 5919 5919 5917 5915 5913 5912 5912 5913 5912 5911 5909 5905 5901 5898 5897 5893 5889 5885 5880 5876 5872 5868 5864 5859 5855 5853 5849 5845 5842 5837 5832 5828 5823 5817 5813 5808 5803 5799 5793 5787 5779 5772 5764 5757 5751 5746
5919 5919 5918 5917 5917 5915 5913 5911 5911 5912 5911 5910 5908 5907 5903 5899 5897 5894 5889 5885 5881 5876 5872 5867 5863 5859 5855 5852 5847 5845 5842 5837 5833 5827 5821 5815 5809 5804 5798 5792 5785 5779 5773 5766 5758 5751 5745 5741 5736
5917 5917 5916 5915 5913 5912 5911 5908 5907 5907 5906 5906 5905 5904 5901 5896 5893 5889 5886 5883 5879 5874 5870 5864 5860 5855 5851 5848 5844 5842 5838 5833 5825 5818 5812 5806 5800 5794 5788 5782 5774 5767 5760 5755 5748 5740 5735 5731 5726
5916 5915 5913 5912 5910 5909 5907 5905 5904 5903 5903 5902 5901 5900 5897 5894 5890 5887 5884 5879 5876 5874 5869 5863 5858 5854 5849 5845 5842 5837 5830 5824 5817 5810 5803 5796 5790 5783 5776 5771 5765 5759 5753 5744 5736 5728 5723 5719 5714
5914 5913 5911 5909 5908 5905 5903 5903 5902 5901 5900 5899 5897 5895 5893 5891 5889 5886 5881 5877 5873 5869 5863 5858 5854 5849 5844 5839 5832 5826 5819 5813 5807 5800 5793 5786 5780 5774 5768 5762 5756 5749 5742 5733 5723 5716 5711 5705 5701
5911 5910 5908 5906 5905 5901 5899 5900 5899 5898 5897 5895 5894 5893 5890 5888 5886 5883 5878 5873 5867 5861 5856 5852 5846 5840 5833 5827 5823 5817 5810 5804 5797 5790 5785 5779 5772 5765 5758 5751 5744 5737 5729 5721 5711 5703 5697 5690 5686
5909 5908 5905 5904 5901 5899 5898 5897 5897 5896 5895 5895 5893 5890 5886 5884 5881 5877 5872 5867 5861 5854 5850 5845 5839 5833 5826 5821 5814 5808 5801 5794 5788 5782 5776 5769 5762 5754 5746 5739 5732 5724 5716 5706 5697 5690 5682 5675 5671
5908 5906 5902 5901 5898 5897 5896 5895 5894 5893 5892 5890 5888 5884 5881 5879 5876 5871 5866 5861 5853 5847 5842 5837 5831 5825 5819 5812 5805 5798 5792 5785 5779 5772 5765 5759 5751 5743 5735 5727 5719 5711 5702 5692 5683 5675 5668 5662 5656
5905 5904 5902 5899 5897 5895 5894 5892 5891 5889 5888 5886 5883 5880 5876 5874 5869 5864 5859 5851 5845 5839 5835 5829 5823 5817 5811 5803 5796 5789 5783 5776 5768 5761 5754 5747 5740 5732 5723 5715 5707 5698 5688 5678 5670 5662 5654 5646 5639
5902 5901 5899 5896 5894 5893 5891 5890 5888 5885 5884 5882 5878 5875 5872 5868 5861 5855 5849 5843 5838 5834 5827 5821 5816 5808 5800 5794 5788 5781 5773 5765 5758 5749 5741 5734 5727 5719 5711 5704 5695 5686 5675 5666 5657 5649 5640 5631 5623
5899 5897 5896 5893 5892 5890 5888 5886 5885 5883 5880 5877 5873 5870 5866 5859 5854 5848 5842 5837 5832 5826 5820 5814 5807 5800 5794 5787 5779 5772 5764 5755 5747 5739 5732 5723 5715 5707 5700 5692 5683 5672 5662 5653 5645 5637 5627 5618 5609
5897 5895 5892 5890 5888 5886 5885 5882 5881 5878 5875 5871 5867 5864 5858 5854 5849 5844 5838 5832 5827 5821 5813 5806 5800 5793 5786 5779 5770 5762 5754 5746 5738 5729 5720 5713 5705 5697 5689 5681 5672 5661 5651 5643 5635 5626 5618 5610 5601
5893 5890 5888 5887 5885 5882 5880 5879 5874 5872 5870 5865 5862 5858 5854 5850 5845 5839 5833 5827 5820 5813 5806 5800 5793 5786 5779 5771 5763 5755 5747 5738 5729 5720 5711 5702 5694 5686 5678 5670 5660 5651 5642 5634 5626 5617 5611 5604 5598
5890 5888 5885 5884 5883 5879 5876 5876 5872 5867 5862 5859 5856 5853 5848 5844 5839 5833 5827 5820 5813 5807 5801 5794 5787 5780 5772 5764 5755 5746 5737 5729 5719 5710 5700 5692 5684 5676 5668 5659 5650 5642 5634 5627 5619 5612 5606 5600 5596